Weather History for Hereford, TX

Change the Weather History Date:

Thursday, March 7, 2013

  Actual Average (KAMA) Record (KAMA)
Temperature  
Mean Temperature 55 °F 46 °F  
Max Temperature 78 °F 60 °F 84 °F (1925)
Min Temperature 32 °F 31 °F 6 °F (1996)
Degree Days  
Heating Degree Days 10 20  
Month to date heating degree days 143  
Since 1 July heating degree days 3420  
Cooling Degree Days 0 0  
Month to date cooling degree days 0  
Year to date cooling degree days 0  
Growing Degree Days 5 (Base 50)    
Moisture  
Dew Point 24 °F    
Average Humidity 35    
Maximum Humidity 66    
Minimum Humidity 14    
Precipitation  
Precipitation 0.00 in 0.03 in 0.60 in (1905)
Month to date precipitation 0.23  
Year to date precipitation 1.51  
Snow  
Snow 0.00 in 0.10 in 1.00 in (1905)
Month to date snowfall 0.6  
Since 1 July snowfall 14.6  
Snow Depth -    
Sea Level Pressure  
Sea Level Pressure 29.99 in    
Wind  
Wind Speed 9 mph (SSW)    
Max Wind Speed 21 mph    
Max Gust Speed 26 mph    
Visibility 10 miles    
Events      
T = Trace of Precipitation, MM = Missing Value Source: NWS Daily Summary

Daily Weather History Graph

Daily Weather History Graph

Search for Another Location

Airport:

Trip Planner

Search our weather history database for the weather conditions in past years. The results will help you decide how hot, cold, wet, or windy it might be!

Date:

Astronomy

Mar. 07, 2013 Rise Set
Actual Time 7:10 AM CST 6:50 PM CST
Civil Twilight 6:45 AM CST 7:15 PM CST
Nautical Twilight 6:15 AM CST 7:45 PM CST
Astronomical Twilight 5:46 AM CST 8:14 PM CST
Moon 4:03 AM CST (3/7) 2:48 PM CST (3/7)
Length of Visible Light 12h 30m
Length of Day
11h 40m
Waning Crescent, 20% of the Moon is Illuminated
Mar 7
Waning Crescent
Mar 11
New
Mar 19
First Quarter
Mar 27
Full
Apr 2
Last Quarter

Hourly Weather History & Observations

Time (CST) Temp. Windchill Dew Point Humidity Pressure Visibility Wind Dir Wind Speed Gust Speed Precip Events Conditions
12:15 AM 35.1 °F 30.1 °F 20.3 °F 55% 30.04 in 10.0 mi South 5.8 mph - N/A   Clear
12:35 AM 38.3 °F 33.2 °F 19.8 °F 47% 30.04 in 10.0 mi SSW 6.9 mph - N/A   Clear
12:55 AM 37.2 °F 31.9 °F 20.3 °F 50% 30.03 in 10.0 mi SSW 6.9 mph - N/A   Clear
1:15 AM 36.1 °F - 20.3 °F 53% 30.03 in 10.0 mi Calm Calm - N/A   Clear
1:35 AM 37.4 °F 34.9 °F 19.9 °F 49% 30.03 in 10.0 mi SSW 3.5 mph - N/A   Clear
1:55 AM 34.7 °F 29.6 °F 20.8 °F 57% 30.03 in 10.0 mi South 5.8 mph - N/A   Clear
2:15 AM 34.3 °F 27.7 °F 21.0 °F 58% 30.02 in 10.0 mi SSW 8.1 mph - N/A   Clear
2:35 AM 35.6 °F 30.7 °F 19.9 °F 53% 30.02 in 10.0 mi SSW 5.8 mph - N/A   Clear
2:55 AM 35.6 °F 30.7 °F 20.3 °F 54% 30.02 in 10.0 mi SSW 5.8 mph - N/A   Clear
3:15 AM 34.2 °F 29.0 °F 20.8 °F 58% 30.00 in 10.0 mi SSW 5.8 mph - N/A   Clear
3:35 AM 34.2 °F 26.2 °F 21.9 °F 61% 29.99 in 10.0 mi SSW 10.4 mph - N/A   Clear
3:55 AM 37.4 °F 29.8 °F 20.3 °F 50% 29.98 in 10.0 mi SSW 11.5 mph - N/A   Clear
4:15 AM 37.9 °F 30.9 °F 20.1 °F 49% 29.98 in 10.0 mi SW 10.4 mph - N/A   Clear
4:35 AM 37.9 °F 30.5 °F 19.8 °F 48% 29.98 in 10.0 mi SW 11.5 mph - N/A   Clear
4:55 AM 37.0 °F 30.4 °F 19.9 °F 50% 29.98 in 10.0 mi SW 9.2 mph - N/A   Clear
5:15 AM 36.0 °F 28.0 °F 20.3 °F 53% 29.99 in 10.0 mi SW 11.5 mph - N/A   Clear
5:35 AM 35.8 °F 27.8 °F 20.1 °F 53% 29.99 in 10.0 mi SSW 11.5 mph - N/A   Clear
5:55 AM 34.5 °F 27.9 °F 20.8 °F 57% 29.99 in 10.0 mi SW 8.1 mph - N/A   Clear
6:15 AM 36.5 °F 29.2 °F 20.3 °F 52% 29.99 in 10.0 mi SW 10.4 mph - N/A   Clear
6:35 AM 35.6 °F 29.9 °F 20.8 °F 55% 29.99 in 10.0 mi SSW 6.9 mph - N/A   Clear
6:55 AM 32.9 °F 29.8 °F 21.0 °F 62% 30.00 in 10.0 mi WSW 3.5 mph - N/A   Clear
7:15 AM 33.1 °F 27.7 °F 21.2 °F 62% 30.00 in 10.0 mi WNW 5.8 mph - N/A   Clear
7:35 AM 32.0 °F - 21.9 °F 66% 30.01 in 10.0 mi Calm Calm - N/A   Clear
7:55 AM 34.9 °F 27.7 °F 23.5 °F 63% 30.03 in 7.0 mi SSW 9.2 mph - N/A   Clear
8:15 AM 39.6 °F 37.4 °F 24.1 °F 54% 30.03 in 10.0 mi WSW 3.5 mph - N/A   Clear
8:35 AM 46.4 °F 41.5 °F 23.2 °F 40% 30.03 in 10.0 mi WSW 10.4 mph - N/A   Clear
8:55 AM 48.6 °F - 23.0 °F 37% 30.04 in 10.0 mi SW 8.1 mph - N/A   Clear
9:15 AM 51.3 °F - 23.9 °F 34% 30.04 in 10.0 mi WSW 8.1 mph - N/A   Clear
9:35 AM 54.7 °F - 25.3 °F 32% 30.04 in 10.0 mi SW 8.1 mph - N/A   Clear
9:55 AM 57.2 °F - 26.1 °F 30% 30.03 in 10.0 mi SW 9.2 mph - N/A   Clear
10:15 AM 60.4 °F - 27.1 °F 28% 30.03 in 10.0 mi WSW 9.2 mph - N/A   Clear
10:35 AM 64.0 °F - 27.9 °F 26% 30.03 in 10.0 mi SW 9.2 mph - N/A   Clear
10:55 AM 65.8 °F - 28.4 °F 25% 30.03 in 10.0 mi WSW 9.2 mph - N/A   Clear
11:15 AM 69.6 °F - 29.5 °F 22% 30.03 in 10.0 mi SW 5.8 mph - N/A   Clear
11:35 AM 71.8 °F - 27.7 °F 19% 30.03 in 10.0 mi WSW 9.2 mph - N/A   Clear
11:55 AM 74.7 °F - 26.8 °F 17% 30.03 in 10.0 mi West 12.7 mph 16.1 mph N/A   Clear
12:15 PM 75.0 °F - 25.9 °F 16% 30.02 in 10.0 mi SW 9.2 mph - N/A   Clear
12:35 PM 76.6 °F - 26.4 °F 16% 30.02 in 10.0 mi SW 13.8 mph 17.3 mph N/A   Clear
12:55 PM 77.2 °F - 25.5 °F 15% 30.00 in 10.0 mi SW 12.7 mph 23.0 mph N/A   Clear
1:15 PM 77.9 °F - 26.2 °F 15% 30.00 in 10.0 mi SW 15.0 mph - N/A   Clear
1:35 PM 77.9 °F - 26.2 °F 15% 29.98 in 10.0 mi SSW 15.0 mph 21.9 mph N/A   Clear
1:55 PM 77.5 °F - 25.9 °F 15% 29.97 in 10.0 mi SW 11.5 mph 20.7 mph N/A   Clear
2:15 PM 78.3 °F - 25.7 °F 14% 29.96 in 10.0 mi SSW 13.8 mph 20.7 mph N/A   Clear
2:35 PM 78.3 °F - 25.5 °F 14% 29.95 in 10.0 mi SSW 15.0 mph - N/A   Clear
2:55 PM 78.3 °F - 25.5 °F 14% 29.95 in 10.0 mi SSW 17.3 mph 21.9 mph N/A   Clear
3:15 PM 76.5 °F - 24.6 °F 15% 29.95 in 10.0 mi SSW 13.8 mph 19.6 mph N/A   Clear
3:35 PM 77.4 °F - 25.0 °F 14% 29.94 in 10.0 mi SSW 15.0 mph 23.0 mph N/A   Clear
3:55 PM 78.3 °F - 25.0 °F 14% 29.94 in 10.0 mi SSW 18.4 mph 26.5 mph N/A   Clear
4:15 PM 77.5 °F - 25.0 °F 14% 29.93 in 10.0 mi South 19.6 mph - N/A   Clear
4:35 PM 77.4 °F - 24.1 °F 14% 29.93 in 10.0 mi South 20.7 mph 26.5 mph N/A   Clear
4:55 PM 77.0 °F - 24.1 °F 14% 29.93 in 10.0 mi South 19.6 mph 25.3 mph N/A   Clear
5:15 PM 76.3 °F - 23.7 °F 14% 29.93 in 10.0 mi South 19.6 mph 25.3 mph N/A   Clear
5:35 PM 75.0 °F - 22.5 °F 14% 29.93 in 10.0 mi South 18.4 mph - N/A   Clear
5:55 PM 73.9 °F - 23.7 °F 15% 29.93 in 10.0 mi South 17.3 mph 25.3 mph N/A   Clear
7:35 PM 63.3 °F - 25.5 °F 24% 29.95 in 10.0 mi SSE 15.0 mph 21.9 mph N/A   Clear
7:55 PM 61.7 °F - 24.6 °F 24% 29.95 in 10.0 mi South 16.1 mph 23.0 mph N/A   Clear
8:15 PM 61.0 °F - 25.2 °F 25% 29.95 in 10.0 mi SSE 17.3 mph 21.9 mph N/A   Clear
8:35 PM 59.9 °F - 25.5 °F 27% 29.96 in 10.0 mi SSE 15.0 mph 23.0 mph N/A   Clear
8:55 PM 59.0 °F - 25.9 °F 28% 29.96 in 10.0 mi South 11.5 mph 20.7 mph N/A   Clear
9:15 PM 57.2 °F - 26.6 °F 31% 29.97 in 10.0 mi South 12.7 mph - N/A   Clear
9:35 PM 57.7 °F - 26.8 °F 31% 29.98 in 10.0 mi South 15.0 mph - N/A   Clear
9:55 PM 57.4 °F - 27.1 °F 31% 29.98 in 10.0 mi South 13.8 mph 21.9 mph N/A   Clear
10:15 PM 57.2 °F - 27.5 °F 32% 29.98 in 10.0 mi South 17.3 mph 24.2 mph N/A   Clear
10:35 PM 56.7 °F - 28.0 °F 33% 29.99 in 10.0 mi South 19.6 mph 26.5 mph N/A   Clear
10:55 PM 55.9 °F - 28.2 °F 35% 29.99 in 10.0 mi South 19.6 mph 24.2 mph N/A   Clear
11:15 PM 55.4 °F - 27.9 °F 35% 29.98 in 10.0 mi South 19.6 mph 23.0 mph N/A   Clear
11:35 PM 55.0 °F - 28.0 °F 35% 29.98 in 10.0 mi South 18.4 mph 24.2 mph N/A   Clear
11:55 PM 54.9 °F - 29.3 °F 38% 29.98 in 10.0 mi South 18.4 mph 24.2 mph N/A   Clear